sat.trackr.live / text

‹ back to catalog

2025-313AE

NORAD 67276 · 2025-313AE

PAYLOAD ACTIVE UNKNOWN

§ Identity

Operator
Country
TBD
Launch date
2025-12-28
Launch site
VOSTO
Launch vehicle
Mass (kg)
RCS (m²)

External: N2YO · Heavens-Above · Gunter

§ Orbital elements

Epoch: 2026-05-25T03:36:51.662016Z

Period
94.59 min
Inclination
97.3910°
Eccentricity
0.0015476
Mean motion
15.22307891 rev/d
Perigee alt
488.2 km
Apogee alt
509.5 km
Semi-major
6,877.0 km
B*
3.0352e-4
RAAN
220.0660°
Arg perigee
89.8796°
Mean anomaly
270.4214°
Rev number
2,244

§ Raw data

2025-313AE1 67276U 25313AE  26145.15059794  .00006947  00000+0  30352-3 0  99912 67276  97.3910 220.0660 0015476  89.8796 270.4214 15.22307891 22445

JSON: /api/v1/satellites/67276 · /tle

For live sub-satellite position, see the globe view (requires WebGL).

§ Visibility from observer

Set your observer location to see the next 7 days of passes ≥ 10°. The values pass through the URL so the page stays shareable.

No JS? Fill the form by hand. The geolocation button needs JavaScript.